Location: Observatoire
(46.1952°N, 5.3391°E)
Time: 22:07:32
(UTC+01:00)

A-11 Canister half - Pass Details

Date: 19 February 2026
Orbit: 1525 x 1683 km, 47.3° (Epoch: 5 March)

Event Time Altitude Azimuth Distance (km) Brightness Sun altitude
Rises 00:17:45 0° 291° (WNW) 4,681 11.8 -54.4°
Enters shadow 00:20:40 - 282° (WNW) 3,893 11.3 -54.5°
Reaches altitude 10° 00:21:26 10° 279° (W) 3,703 - -54.5°
Maximum altitude 00:28:33 25° 229° (SW) 2,713 - -54.8°
Drops below altitude 10° 00:35:47 10° 178° (S) 3,761 - -55.0°
Sets 00:39:35 0° 166° (SSE) 4,768 - -55.0°
